Location: Newark
(29.9790°N, 31.1340°E)
Time: 09:52:50
(UTC+00:00)

Vanguard 3 - Pass Details

Date: 23 January 2021
Orbit: 508 x 3262 km, 33.4° (Epoch: 07 March)

Event Time Altitude Azimuth Distance (km) Brightness Sun altitude
Exits shadow 01:15:52 39° 80° (E) 1,982 9.2 -46.2°
Drops below altitude 10° 01:22:31 10° 74° (ENE) 4,215 11.3 -44.8°
Sets 01:26:59 0° 73° (ENE) 5,680 12.2 -43.8°
